Clarksburg, WV

4:47 PM EST on December 05, 2019 (GMT -0500)
Benedum

Weather History for KCKB - November, 2019

Change the Weather History Date:

Monday, November 18, 2019

  Actual Average Record
Temperature  
Mean Temperature 45 °F -  
Max Temperature 58 °F 52 °F 80 °F (1958)
Min Temperature 32 °F 32 °F 7 °F (1933)
Degree Days  
Heating Degree Days 20    
Month to date heating degree days 437  
Moisture  
Dew Point 28 °F    
Average Humidity 54    
Maximum Humidity 78    
Minimum Humidity 30    
Precipitation  
Precipitation 0.00 in - - ()
Month to date precipitation 0.69  
Year to date precipitation 36.09  
Sea Level Pressure  
Sea Level Pressure 29.76 in    
Wind  
Wind Speed 2 mph (WSW)    
Max Wind Speed 16 mph    
Max Gust Speed 21 mph    
Visibility 10 miles    
Events      
Averages and records for this station are not official NWS values.
T = Trace of Precipitation, MM = Missing Value Source: NWS Daily Summary

Daily Weather History Graph

Daily Weather History Graph

Search for Another Location

Airport or City:

Astronomy

Nov. 18, 2019 Rise Set
Actual Time 7:07 AM EST 5:04 PM EST
Civil Twilight 6:38 AM EST 5:33 PM EST
Nautical Twilight 6:06 AM EST 6:05 PM EST
Astronomical Twilight 5:34 AM EST 6:37 PM EST
Moon 10:47 PM EST (11/18) 12:37 PM EST (11/18)
Length of Visible Light 10h 54m
Length of Day
9h 56m
Waning Gibbous, 63% of the Moon is Illuminated
Nov 18
Waning Gibbous
Nov 19
Last Quarter
Nov 26
New
Dec 4
First Quarter
Dec 12
Full

Hourly Weather History & Observations

Time (EST) Temp. Dew Point Humidity Pressure Visibility Wind Dir Wind Speed Gust Speed Precip Events Conditions
12:53 AM 33.1 °F 26.1 °F 75% 29.85 in 10.0 mi Calm Calm - N/A   Clear
1:53 AM 33.1 °F 26.1 °F 75% 29.83 in 10.0 mi Calm Calm - N/A   Clear
2:53 AM 34.0 °F 27.0 °F 75% 29.81 in 10.0 mi Calm Calm - N/A   Clear
3:53 AM 32.0 °F 26.1 °F 79% 29.80 in 10.0 mi Calm Calm - N/A   Clear
4:53 AM 35.1 °F 28.0 °F 76% 29.80 in 10.0 mi Calm Calm - N/A   Clear
5:53 AM 32.0 °F 27.0 °F 82% 29.80 in 10.0 mi Calm Calm - N/A   Clear
6:53 AM 33.1 °F 27.0 °F 78% 29.80 in 10.0 mi Calm Calm - N/A   Clear
7:53 AM 35.1 °F 28.0 °F 76% 29.81 in 10.0 mi Calm Calm - N/A   Clear
8:53 AM 37.0 °F 30.0 °F 76% 29.80 in 10.0 mi Calm Calm - N/A   Clear
9:53 AM 41.0 °F 30.9 °F 67% 29.80 in 10.0 mi Calm Calm - N/A   Clear
10:53 AM 46.9 °F 34.0 °F 61% 29.78 in 10.0 mi Calm Calm - N/A   Clear
11:53 AM 53.1 °F 33.1 °F 47% 29.74 in 10.0 mi SW 8.1 mph - N/A   Clear
12:53 PM 57.0 °F 30.0 °F 36% 29.70 in 10.0 mi Variable 6.9 mph - N/A   Clear
1:53 PM 57.9 °F 28.9 °F 33% 29.67 in 10.0 mi WSW 10.4 mph - N/A   Clear
2:53 PM 57.0 °F 28.9 °F 34% 29.66 in 10.0 mi West 6.9 mph - N/A   Clear
3:53 PM 57.0 °F 26.1 °F 30% 29.68 in - North - - N/A   Unknown
4:53 PM 52.0 °F 26.1 °F 37% 29.69 in - North - - N/A   Unknown
5:53 PM 50.0 °F 27.0 °F 41% 29.71 in - North - - N/A   Unknown
6:53 PM - - N/A% 29.72 in - North - - N/A   Unknown
7:53 PM - - N/A% 29.73 in - North - - N/A   Unknown
8:53 PM - - N/A% 29.74 in - North - - N/A   Unknown
10:53 PM - - N/A% 29.76 in - North - - N/A   Unknown
11:53 PM - - N/A% 29.77 in - North - - N/A   Unknown